Tracking 17147 objects as of 4-July-2015
HD Live streaming from Space Station

OXP 1

Track OXP 1 now!
10-day predictions
OXP 1 is classified as:


NORAD ID: 22489
Int'l Code: 1993-009A
Perigee: 721.0 km
Apogee: 779.4 km
Inclination: 25.0 °
Period: 99.7 minutes
Semi major axis: 7121 km
RCS: 1.9581 m2 (large)
Launch date: February 9, 1993
Source: United States (US)
Your satellite tracking list
Your tracking list is empty





NASA's NSSDC Master Catalog

Two Line Element Set (TLE):
1 22489U 93009A   15184.87359081  .00000300  00000-0  32984-4 0  9999
2 22489 024.9659 029.7523 0041018 352.3898 124.2527 14.44681805182119

Source of the keplerian elements: AFSPC

N2YO: 232